Location: Altoona
(40.5167°N, 78.4000°W)
Time: 03:01:11
(UTC-05:00)

SL-16 R/B - Pass Details

Date: 21 August 2017
Orbit: 842 x 846 km, 71.0° (Epoch: 20 November)

Event Time Altitude Azimuth Distance (km) Brightness Sun altitude
Rises 21:26:17 0° 217° (SW) 3,385 5.4 -15.5°
Reaches altitude 10° 21:28:47 10° 222° (SW) 2,454 4.7 -15.9°
Maximum altitude 21:34:15 50° 298° (WNW) 1,061 3.1 -16.8°
Drops below altitude 10° 21:39:45 10° 14° (NNE) 2,468 4.9 -17.6°
Sets 21:42:17 0° 19° (NNE) 3,407 5.5 -18.0°
